Content
SEND FEEDBACK

Daily
Averages
Monthly
Summary
United States of America

UPI, GUAM


Home > North America > United States > Guam
Elevation: 53 feet     Latitude: 13 34N     Longitude: 144 55E

WEATHER
 
SELECT A DAY
Number of Records: 215,513;   Date Range: 1/1/95 - 12/17/14
 
SHARE

PRINT THIS DATA

[ ← Previous Day ]
WEATHER ALMANAC - AUGUST 8, 2014
[ Next Day → ]
[ °C ]   °F
Weather ElementAverageHighLow
Temperature82.7 °F87.8 °F (1:11 pm)78.1 °F (1:54 am)
Dewpoint77.1 °F80.6 °F (1:49 pm)75 °F (5:54 am)
Humidity83.4 %94 % (11:54 pm)70 % (12:50 pm)
Barometer29.79 in29.86 in (5:23 am)29.74 in (5:54 pm)
Wind Speed4.8 mph11.5 mph (12:08 am)
Weather ElementAverage
Visibility9.6 mi
Wind DirectionENE (80.3 °)

Weather ElementTotal
Precipitation0.05 in
Cooling Degree Days18 (Base 65)
Growing Degree Days33 (Base 50)
Averaged from 32 records on August 8, 2014
WEATHER CONDITIONS BREAKOUT
WIND DIRECTION BREAKOUT
WEATHER BY HOUR - AUGUST 8, 2014
[ °C ]   °F
Local TimeTemperatureDewpointHumidityBarometerVisibilityWind DirectionWind SpeedGust SpeedPrecipitationEventsConditions
12:54 AM80.1 °F77.0 °F90 %29.78 in10.0 miCalmPartly Cloudy
1:08 AM78.8 °F77.0 °F94 %29.79 in10.0 miCalmPartly Cloudy
1:54 AM78.1 °F75.9 °F93 %29.75 in10.0 miCalmClear
2:54 AM79.0 °F77.0 °F94 %29.74 in10.0 miCalmPartly Cloudy
3:54 AM78.1 °F75.0 °F90 %29.74 in10.0 miCalmPartly Cloudy
4:54 AM79.0 °F77.0 °F94 %29.75 in10.0 miNE (50°)4.6 mphClear
5:54 AM79.0 °F75.9 °F90 %29.75 in10.0 miNE (50°)3.5 mphPartly Cloudy
6:54 AM81.0 °F78.1 °F91 %29.77 in10.0 miCalmScattered Clouds
7:54 AM82.0 °F78.1 °F88 %29.79 in10.0 miEast (80°)3.5 mphClear
8:54 AM84.0 °F78.1 °F82 %29.80 in10.0 miENE (70°)4.6 mphMostly Cloudy
9:50 AM84.2 °F77.0 °F79 %29.83 in10.0 miEast (100°)8.1 mphMostly Cloudy
9:54 AM84.9 °F77.0 °F77 %29.81 in10.0 miEast (90°)6.9 mphMostly Cloudy
10:39 AM84.2 °F77.0 °F79 %29.83 in10.0 miEast (90°)11.5 mphMostly Cloudy
10:54 AM84.9 °F77.0 °F77 %29.81 in10.0 miESE (120°)9.2 mphMostly Cloudy
11:01 AM86.0 °F77.0 °F74 %29.83 in10.0 miESE (120°)6.9 mphMostly Cloudy
11:23 AM86.0 °F78.8 °F79 %29.82 in10.0 miESE (110°)9.2 mphMostly Cloudy
11:54 AM86.0 °F77.0 °F74 %29.79 in10.0 miESE (120°)9.2 mphScattered Clouds
12:54 PM86.0 °F77.0 °F74 %29.78 in10.0 miSSE (150°)9.2 mphScattered Clouds
1:11 PM87.8 °F77.0 °F70 %29.80 in10.0 miSE (130°)8.1 mphMostly Cloudy
1:49 PM84.2 °F80.6 °F89 %29.79 in4.0 miSSE (150°)9.2 mph0.00 inRainRain
1:54 PM82.9 °F78.1 °F85 %29.76 in2.0 miSSE (150°)5.8 mph0.02 inRainHeavy Rain
1:56 PM82.4 °F77.0 °F84 %29.78 in10.0 miSSE (150°)5.8 mph0.01 inRainLight Rain
2:54 PM86.0 °F77.0 °F74 %29.75 in10.0 miSSE (150°)8.1 mph0.02 inClear
3:54 PM84.9 °F77.0 °F77 %29.75 in10.0 miSE (140°)6.9 mphPartly Cloudy
4:54 PM84.9 °F77.0 °F77 %29.76 in10.0 miSE (130°)8.1 mphPartly Cloudy
5:54 PM84.0 °F77.0 °F79 %29.77 in10.0 miSE (140°)5.8 mphPartly Cloudy
6:54 PM82.9 °F77.0 °F82 %29.79 in10.0 miSE (140°)4.6 mphPartly Cloudy
7:54 PM82.0 °F77.0 °F85 %29.81 in10.0 miSE (140°)3.5 mphPartly Cloudy
8:54 PM82.0 °F75.9 °F82 %29.84 in10.0 miCalmPartly Cloudy
9:54 PM82.0 °F77.0 °F85 %29.85 in10.0 miCalmPartly Cloudy
10:54 PM80.1 °F77.0 °F90 %29.86 in10.0 miCalmPartly Cloudy
11:54 PM79.0 °F75.9 °F90 %29.84 in10.0 miCalmPartly Cloudy
Hourly data recorded from PGUM, located miles away from Upi, Guam







STORIES FROM OUR PARTNERS